STARLINK-11732 [DTC]

Last updated on Thu Jul 03 2025 00:02:06 GMT+0000 (Coordinated Universal Time)

1 64370U 25127A 25183.39740529 .00133752 00000+0 75818-3 0 9997 2 64370 43.0004 156.2924 0001571 265.8929 94.1762 15.77893562 4104
UTC large
Height (km)
Speed (km/s)
/
Latitude / Longitude
Inclination (degrees)
Orbital Period (minutes)
Azimuth
Elevation
Range (km)
Doppler Factor

Next 0 passes for location: London (51.5072 / 0.1276)

Sorry there are no passes over London.